FW3054 Weather Reports


Display with metric or nautical units.
time (UTC)temp
F
wind
direction
speed
MPH
gust
MPH
rain 1hr
in
rain 24hr
in
rain mn
in
humidity
%
barometer
mb
20260903180516 92 0.0 2.0 0.00 0.00 0.00 51 1021.2
20260903175516 93 0.0 0.0 0.00 0.00 0.00 53 1021.5
20260903174516 93 0.0 0.0 0.00 0.00 0.00 50 1021.6
20260903173516 93 0.0 1.0 0.00 0.00 0.00 51 1021.8
20260903172516 92 0.0 1.0 0.00 0.00 0.00 52 1021.8
20260903171516 91 0.0 1.0 0.00 0.00 0.00 58 1022.0
20260903170516 91 0.0 1.0 0.00 0.00 0.00 57 1022.1
20260903165516 90 0.0 1.0 0.00 0.00 0.00 54 1022.3
20260903164516 89 23 1.0 4.0 0.00 0.00 0.00 54 1022.3
20260903163536 88 0.0 3.0 0.00 0.00 0.00 56 1022.2
20260903162536 87 0.0 2.0 0.00 0.00 0.00 60 1022.2
20260903161536 87 0.0 1.0 0.00 0.00 0.00 65 1022.3
20260903160516 87 0 1.0 3.0 0.00 0.00 0.00 62 1022.4
20260903155516 86 0.0 1.0 0.00 0.00 0.00 65 1022.5
20260903154516 85 0.0 1.0 0.00 0.00 0.00 68 1022.4
20260903153516 83 0.0 1.0 0.00 0.00 0.00 70 1022.4
20260903152536 82 0.0 0.0 0.00 0.00 0.00 73 1022.3
20260903151516 81 0.0 0.0 0.00 0.00 0.00 75 1022.3
20260903150516 80 0.0 0.0 0.00 0.00 0.00 76 1022.2
20260903145516 79 0.0 0.0 0.00 0.00 0.00 78 1022.3
20260903144516 78 0.0 1.0 0.00 0.00 0.00 80 1022.3
20260903143516 77 0.0 1.0 0.00 0.00 0.00 82 1022.2
20260903142516 76 0.0 0.0 0.00 0.00 0.00 85 1022.3
20260903141516 75 0.0 0.0 0.00 0.00 0.00 86 1022.2
20260903140515 74 0.0 0.0 0.00 0.00 0.00 88 1022.1
20260903135516 73 0.0 0.0 0.00 0.00 0.00 89 1022.1
20260903134515 72 0.0 0.0 0.00 0.00 0.00 89 1022.1
20260903133516 72 0.0 0.0 0.00 0.00 0.00 89 1022.1
20260903132515 71 0.0 0.0 0.00 0.00 0.00 89 1022.1
20260903131536 70 0.0 0.0 0.00 0.00 0.00 87 1021.9
20260903130516 70 0.0 0.0 0.00 0.00 0.00 84 1021.9
20260903125516 69 0.0 0.0 0.00 0.00 0.00 83 1022.0
20260903124515 69 0.0 0.0 0.00 0.00 0.00 84 1022.1
20260903123515 68 0.0 0.0 0.00 0.00 0.00 85 1022.0
20260903122516 68 0.0 0.0 0.00 0.00 0.00 86 1022.2
20260903121515 68 0.0 0.0 0.00 0.00 0.00 86 1022.3
20260903120516 68 0.0 0.0 0.00 0.00 0.00 87 1022.1
20260903115515 68 0.0 0.0 0.00 0.00 0.00 87 1022.2
20260903114515 68 0.0 0.0 0.00 0.00 0.00 88 1022.2
20260903113515 68 0.0 0.0 0.00 0.00 0.00 88 1022.0
20260903112515 68 0.0 0.0 0.00 0.00 0.00 88 1022.0
20260903111536 68 0.0 0.0 0.00 0.00 0.00 88 1021.9
20260903110515 68 0.0 0.0 0.00 0.00 0.00 88 1021.7
20260903105515 68 0.0 0.0 0.00 0.00 0.00 87 1021.7
20260903104515 68 0.0 0.0 0.00 0.00 0.00 87 1021.7
20260903103515 68 0.0 0.0 0.00 0.00 0.00 87 1021.6
20260903102516 68 0.0 0.0 0.00 0.00 0.00 87 1021.7
20260903101515 68 0.0 0.0 0.00 0.00 0.00 87 1021.7
20260903100515 68 0.0 0.0 0.00 0.00 0.00 88 1021.7
20260903095515 68 0.0 0.0 0.00 0.00 0.00 88 1021.8
20260903094515 68 0.0 0.0 0.00 0.00 0.00 88 1021.8
20260903093515 68 0.0 0.0 0.00 0.00 0.00 88 1021.8
20260903092517 68 0.0 0.0 0.00 0.00 0.00 88 1022.0
20260903091517 68 0.0 0.0 0.00 0.00 0.00 88 1021.9
20260903090517 68 0.0 0.0 0.00 0.00 0.00 88 1021.8
20260903085517 68 0.0 0.0 0.00 0.00 0.00 89 1021.8
20260903084517 69 0.0 0.0 0.00 0.00 0.00 89 1021.8
20260903083540 69 0.0 0.0 0.00 0.00 0.00 89 1021.8
20260903082517 69 0.0 0.0 0.00 0.00 0.00 89 1021.8
20260903081517 69 0.0 0.0 0.00 0.00 0.00 89 1021.8
20260903080517 69 0.0 0.0 0.00 0.00 0.00 89 1021.8
20260903075537 69 0.0 0.0 0.00 0.00 0.00 89 1021.6
20260903074517 70 0.0 0.0 0.00 0.00 0.00 89 1021.7
20260903073517 70 0.0 0.0 0.00 0.00 0.00 89 1021.9
20260903072517 70 0.0 0.0 0.00 0.00 0.00 89 1021.8
20260903071517 70 0.0 0.0 0.00 0.00 0.00 89 1021.7
20260903070517 70 0.0 0.0 0.00 0.00 0.00 89 1021.6
20260903065537 70 0.0 0.0 0.00 0.00 0.00 89 1021.4
20260903064517 70 0.0 0.0 0.00 0.00 0.00 89 1021.8
20260903063517 70 0.0 0.0 0.00 0.00 0.00 89 1021.7
20260903062517 70 0.0 0.0 0.00 0.00 0.00 89 1021.7
20260903061517 71 0.0 0.0 0.00 0.00 0.00 89 1021.9
20260903060537 71 0.0 0.0 0.00 0.00 0.00 89 1022.0
20260903055517 71 0.0 0.0 0.00 0.00 0.00 89 1022.1
20260903054517 71 0.0 0.0 0.00 0.00 0.00 89 1022.1
20260903053517 71 0.0 0.0 0.00 0.00 0.00 89 1022.1
20260903052517 72 0.0 0.0 0.00 0.00 0.00 88 1022.0
20260903051517 72 0.0 0.0 0.00 0.00 0.00 88 1022.0
20260903050517 72 0.0 0.0 0.00 0.00 0.00 88 1022.0
20260903045517 72 0.0 0.0 0.00 0.00 0.00 88 1021.9
20260903044517 72 0.0 1.0 0.00 0.00 0.00 88 1022.0
20260903043517 72 0.0 0.0 0.00 0.00 0.00 87 1022.1
20260903042519 73 0.0 0.0 0.00 0.00 0.00 87 1021.8
20260903041537 73 0.0 0.0 0.00 0.00 0.00 86 1021.8
20260903040516 73 0.0 0.0 0.00 0.00 0.00 86 1022.0
20260903035517 74 0.0 0.0 0.00 0.00 0.00 85 1021.8
20260903034517 74 0.0 0.0 0.00 0.00 0.00 85 1021.9
20260903033517 74 0.0 0.0 0.00 0.00 0.00 84 1022.0
20260903032517 75 0.0 0.0 0.00 0.00 0.00 83 1021.9
20260903031517 75 0.0 0.0 0.00 0.00 0.00 83 1022.1
20260903030517 75 0.0 0.0 0.00 0.00 0.00 83 1021.9
20260903025517 75 0.0 0.0 0.00 0.00 0.00 82 1021.8
20260903024516 76 0.0 0.0 0.00 0.00 0.00 82 1021.8
20260903023517 76 0.0 0.0 0.00 0.00 0.00 82 1021.9
20260903022517 76 0.0 0.0 0.00 0.00 0.00 82 1021.8
20260903021517 76 0.0 0.0 0.00 0.00 0.00 82 1021.7
20260903020517 76 0.0 0.0 0.00 0.00 0.00 82 1021.6
20260903015516 77 0.0 0.0 0.00 0.00 0.00 81 1021.4
20260903014517 77 0.0 0.0 0.00 0.00 0.00 80 1021.4
20260903013517 77 0.0 0.0 0.00 0.00 0.00 79 1021.1
20260903012516 78 0.0 0.0 0.00 0.00 0.00 79 1021.0
20260903011516 78 0.0 1.0 0.00 0.00 0.00 78 1020.9
20260903010516 79 0.0 0.0 0.00 0.00 0.00 77 1020.8
20260903005516 79 0.0 0.0 0.00 0.00 0.00 75 1020.5
20260903004516 80 0.0 0.0 0.00 0.00 0.00 73 1020.3
20260903003516 80 0.0 0.0 0.00 0.00 0.00 73 1020.1
20260903002517 81 0.0 0.0 0.00 0.00 0.00 72 1020.0
20260903001516 81 0.0 0.0 0.00 0.00 0.00 71 1020.0
20260903000516 81 0.0 0.0 0.00 0.00 0.00 71 1019.9
20260902235516 82 0.0 0.0 0.00 0.00 0.00 70 1020.0
20260902234516 83 0.0 0.0 0.00 0.00 0.00 68 1020.0
20260902233516 84 0.0 0.0 0.00 0.00 0.00 67 1020.0
20260902232517 84 0.0 0.0 0.00 0.00 0.00 65 1020.1
20260902231516 85 0.0 0.0 0.00 0.00 0.00 64 1020.0
20260902230516 86 0.0 0.0 0.00 0.00 0.00 62 1020.2
20260902225516 87 0.0 1.0 0.00 0.00 0.00 60 1020.3
20260902224516 88 0.0 2.0 0.00 0.00 0.00 58 1020.3
20260902223516 88 0.0 1.0 0.00 0.00 0.00 57 1020.5
20260902222516 89 0.0 2.0 0.00 0.00 0.00 53 1020.6
20260902221516 89 23 1.0 3.0 0.00 0.00 0.00 51 1020.7
20260902220537 90 23 1.0 3.0 0.00 0.00 0.00 52 1020.7
20260902215516 90 23 2.0 4.0 0.00 0.00 0.00 48 1020.8
20260902214516 91 0.0 2.0 0.00 0.00 0.00 49 1020.8
20260902213516 91 23 1.0 4.0 0.00 0.00 0.00 46 1020.7
20260902212516 92 0.0 1.0 0.00 0.00 0.00 51 1020.9
20260902211516 93 0.0 1.0 0.00 0.00 0.00 48 1021.0
20260902210516 93 23 1.0 2.0 0.00 0.00 0.00 44 1021.0
20260902205516 94 0.0 2.0 0.00 0.00 0.00 42 1021.2
20260902204516 95 45 1.0 2.0 0.00 0.00 0.00 40 1021.1
20260902203536 95 0.0 1.0 0.00 0.00 0.00 38 1021.2
20260902202516 95 23 1.0 4.0 0.00 0.00 0.00 40 1021.1
20260902201516 96 0 1.0 4.0 0.00 0.00 0.00 39 1021.5
20260902200516 95 0.0 2.0 0.00 0.00 0.00 41 1021.4
20260902195516 96 23 1.0 2.0 0.00 0.00 0.00 38 1021.6
20260902194516 95 0.0 2.0 0.00 0.00 0.00 42 1021.8
20260902193516 94 23 1.0 3.0 0.00 0.00 0.00 41 1021.7
20260902192516 94 23 1.0 3.0 0.00 0.00 0.00 40 1021.9
20260902191516 95 0.0 1.0 0.00 0.00 0.00 42 1022.0
20260902190516 94 23 2.0 4.0 0.00 0.00 0.00 39 1022.1
20260902185516 94 0.0 1.0 0.00 0.00 0.00 44 1022.4
20260902184516 94 0 2.0 4.0 0.00 0.00 0.00 43 1022.4
20260902183516 93 0.0 1.0 0.00 0.00 0.00 50 1022.6
20260902182516 92 23 1.0 2.0 0.00 0.00 0.00 45 1022.6
20260902181516 92 23 1.0 2.0 0.00 0.00 0.00 44 1022.7